Weather History for Darwin Airport, Northern Territory

Change the Weather History Date:

Friday, March 22, 2013

  Actual Average Record
Temperature  
Mean Temperature 84 °F -  
Max Temperature 91 °F 90 °F - ()
Min Temperature 77 °F 75 °F - ()
Cooling Degree Days 19    
Growing Degree Days 34 (Base 50)    
Moisture  
Dew Point 76 °F    
Average Humidity 76    
Maximum Humidity 100    
Minimum Humidity 48    
Precipitation  
Precipitation 0.04 in 0.20 in - ()
Sea Level Pressure  
Sea Level Pressure 29.80 in    
Wind  
Wind Speed 6 mph ()    
Max Wind Speed 16 mph    
Max Gust Speed -    
Visibility 8.5 miles    
Events Rain , Thunderstorm    
T = Trace of Precipitation, MM = Missing Value Source: Averaged Metar Reports

Daily Weather History Graph

Daily Weather History Graph

Search for Another Location

Airport:

Trip Planner

Search our weather history database for the weather conditions in past years. The results will help you decide how hot, cold, wet, or windy it might be!

Date:

Astronomy

Mar. 22, 2013 Rise Set
Actual Time 6:50 AM CST 6:56 PM CST
Civil Twilight 6:29 AM CST 7:17 PM CST
Nautical Twilight 6:04 AM CST 7:41 PM CST
Astronomical Twilight 5:40 AM CST 8:06 PM CST
Moon 3:02 PM CST (3/22) 2:07 AM CST (3/22)
Length of Visible Light 12h 47m
Length of Day
12h 05m
Waxing Gibbous, 72% of the Moon is Illuminated
Mar 22
Waxing Gibbous
Mar 27
Full
Apr 3
Last Quarter
Apr 10
New
Apr 18
First Quarter

Hourly Weather History & Observations

Time (CST) Temp. Heat Index Dew Point Humidity Pressure Visibility Wind Dir Wind Speed Gust Speed Precip Events Conditions
12:00 AM 82 °F - 77 °F 81% 29.81 in 19 mi SSW 5.8 mph - -   Partly Cloudy
12:00 AM 82.4 °F 90.9 °F 77.0 °F 84% 29.80 in 6.2 mi SSW 5.8 mph - N/A   Mostly Cloudy
12:30 AM 82 °F - 78 °F 84% 29.80 in - West 4.6 mph - -  
12:30 AM 82.4 °F 92.4 °F 78.8 °F 89% 29.80 in - West 4.6 mph - N/A   Clear
1:00 AM 82.4 °F 90.9 °F 77.0 °F 84% 29.77 in - WSW 5.8 mph - N/A   Clear
1:30 AM 80.6 °F 87.1 °F 77.0 °F 89% 29.77 in - West 5.8 mph - N/A   Clear
2:00 AM 80.6 °F 87.1 °F 77.0 °F 89% 29.77 in 6.2 mi SW 6.9 mph - N/A   Mostly Cloudy
2:30 AM 80.6 °F 87.1 °F 77.0 °F 89% 29.77 in 6.2 mi South 5.8 mph - N/A   Mostly Cloudy
3:00 AM 80 °F - 78 °F 90% 29.78 in 19 mi South 4.6 mph - -   Partly Cloudy
3:00 AM 80.6 °F 87.1 °F 77.0 °F 89% 29.77 in 6.2 mi South 4.6 mph - N/A   Mostly Cloudy
3:30 AM - - - %  in - Calm Calm - -  
3:30 AM - - - N/A% 0.00 in 6.2 mi Calm Calm - N/A   Mostly Cloudy
4:30 AM 78.8 °F - 77.0 °F 94% 29.77 in - East 4.6 mph - N/A   Clear
5:00 AM 78.8 °F - 77.0 °F 94% 29.77 in - East 4.6 mph - N/A   Clear
5:30 AM 78.8 °F - 77.0 °F 94% 29.80 in - East 4.6 mph - N/A   Clear
6:00 AM 78 °F - 76 °F 94% 29.80 in 19 mi ENE 4.6 mph - -   Partly Cloudy
6:00 AM 77.0 °F - 77.0 °F 100% 29.80 in 6.2 mi ENE 4.6 mph - N/A   Mostly Cloudy
6:30 AM 78 °F - 76 °F 93% 29.80 in - NE 4.6 mph - -  
6:30 AM 77.0 °F - 77.0 °F 100% 29.80 in 6.2 mi NE 4.6 mph - N/A   Scattered Clouds
7:00 AM 77.0 °F - 77.0 °F 100% 29.80 in 6.2 mi East 5.8 mph - N/A   Partly Cloudy
7:30 AM 78.8 °F - 77.0 °F 94% 29.83 in 6.2 mi East 5.8 mph - N/A   Partly Cloudy
8:00 AM 84.2 °F 96.1 °F 78.8 °F 84% 29.83 in 6.2 mi East 3.5 mph - N/A   Partly Cloudy
8:30 AM 84.2 °F 94.1 °F 77.0 °F 79% 29.83 in 6.2 mi South 1.2 mph - N/A   Partly Cloudy
9:00 AM 87 °F - 78 °F 70% 29.84 in 19 mi Calm Calm - -   Partly Cloudy
9:00 AM 86.0 °F 99.3 °F 78.8 °F 79% 29.83 in 6.2 mi Calm Calm - N/A   Scattered Clouds
9:30 AM 85 °F - 77 °F 72% 29.85 in - WSW 3.5 mph - -  
9:30 AM 86.0 °F 96.9 °F 77.0 °F 74% 29.83 in 6.2 mi WSW 3.5 mph - N/A   Partly Cloudy
10:00 AM 86.0 °F 96.9 °F 77.0 °F 74% 29.86 in 6.2 mi West 5.8 mph - N/A   Partly Cloudy
10:30 AM 87.8 °F 99.7 °F 77.0 °F 70% 29.83 in 6.2 mi West 8.1 mph - N/A   Partly Cloudy
11:00 AM 87.8 °F 99.7 °F 77.0 °F 70% 29.83 in 6.2 mi West 8.1 mph - N/A   Partly Cloudy
11:30 AM 87.8 °F 99.7 °F 77.0 °F 70% 29.83 in 6.2 mi WNW 10.4 mph - N/A   Scattered Clouds
12:00 PM 88 °F - 77 °F 62% 29.83 in 19 mi NW 11.5 mph - -   Partly Cloudy
12:00 PM 87.8 °F 99.7 °F 77.0 °F 70% 29.83 in 6.2 mi NW 11.5 mph - N/A   Scattered Clouds
12:30 PM 88 °F - 77 °F 62% 29.83 in - WNW 10.4 mph - -  
12:30 PM 87.8 °F 99.7 °F 77.0 °F 70% 29.83 in 6.2 mi WNW 10.4 mph - N/A Rain Light Rain Showers
12:36 PM 86.0 °F 96.9 °F 77.0 °F 74% 29.83 in 3.7 mi WNW 8.1 mph - N/A Rain Heavy Rain Showers
1:00 PM 87.8 °F 99.7 °F 77.0 °F 70% 29.80 in 6.2 mi WNW 10.4 mph - N/A   Partly Cloudy
1:30 PM 91.4 °F 105.1 °F 77.0 °F 63% 29.80 in 6.2 mi WNW 10.4 mph - N/A   Partly Cloudy
2:00 PM 89.6 °F 102.2 °F 77.0 °F 66% 29.77 in 6.2 mi WNW 10.4 mph - N/A   Partly Cloudy
2:30 PM 91.4 °F 102.5 °F 75.2 °F 59% 29.77 in 6.2 mi WNW 15.0 mph - N/A   Partly Cloudy
2:55 PM 89.6 °F 99.8 °F 75.2 °F 62% 29.77 in 6.2 mi NW 16.1 mph - N/A Thunderstorm Thunderstorm
3:00 PM 89 °F - 74 °F 53% 29.77 in 19 mi NW 15.0 mph - - Thunderstorm Thunderstorm
3:00 PM 89.6 °F 98.2 °F 73.4 °F 59% 29.77 in 6.2 mi NW 15.0 mph - N/A Thunderstorm Thunderstorm
3:30 PM 91 °F - 74 °F 48% 29.76 in - WNW 12.7 mph - -  
3:30 PM 91.4 °F 100.1 °F 73.4 °F 55% 29.74 in 6.2 mi WNW 12.7 mph - N/A   Scattered Clouds
4:00 PM 87.8 °F 102.5 °F 78.8 °F 75% 29.74 in 6.2 mi WNW 10.4 mph - N/A Rain Light Rain Showers
4:30 PM 89.6 °F 98.2 °F 73.4 °F 59% 29.74 in 6.2 mi WNW 12.7 mph - N/A Thunderstorm Scattered Clouds
5:00 PM 87.8 °F 95.6 °F 73.4 °F 62% 29.74 in 6.2 mi WNW 12.7 mph - N/A   Scattered Clouds
5:30 PM 87.8 °F 95.6 °F 73.4 °F 62% 29.77 in 6.2 mi WNW 11.5 mph - N/A   Scattered Clouds
6:00 PM 87 °F - 73 °F 56% 29.77 in 19 mi WNW 10.4 mph - -   Partly Cloudy
6:00 PM 86.0 °F 93.4 °F 73.4 °F 66% 29.77 in 6.2 mi WNW 10.4 mph - N/A   Scattered Clouds
6:30 PM 85 °F - 71 °F 55% 29.80 in - SSW 8.1 mph - -  
6:30 PM 86.0 °F 91.8 °F 71.6 °F 62% 29.80 in 6.2 mi SSW 8.1 mph - N/A   Mostly Cloudy
7:00 PM 82.4 °F 88.2 °F 73.4 °F 74% 29.80 in 6.2 mi WSW 8.1 mph - N/A   Mostly Cloudy
7:30 PM 80.6 °F 85.4 °F 73.4 °F 79% 29.80 in 6.2 mi South 15.0 mph - N/A   Mostly Cloudy
8:00 PM 78.8 °F - 71.6 °F 78% 29.80 in - South 11.5 mph - N/A   Clear
8:30 PM 78.8 °F - 75.2 °F 89% 29.83 in - SW 4.6 mph - N/A   Clear
9:00 PM 80 °F - 75 °F 79% 29.82 in 19 mi WSW 1.2 mph - -   Partly Cloudy
9:00 PM 80.6 °F 86.2 °F 75.2 °F 84% 29.83 in - WSW 1.2 mph - N/A   Clear
9:30 PM 80 °F - 75 °F 82% 29.83 in - SW 3.5 mph - -  
9:30 PM 80.6 °F 86.2 °F 75.2 °F 84% 29.83 in - SW 3.5 mph - N/A   Clear
10:00 PM 80.6 °F 86.2 °F 75.2 °F 84% 29.83 in - WSW 6.9 mph - N/A   Clear
10:30 PM 80.6 °F 85.4 °F 73.4 °F 79% 29.83 in - SSW 8.1 mph - N/A   Clear
11:00 PM 80.6 °F 84.6 °F 71.6 °F 74% 29.83 in - SSW 6.9 mph - N/A   Clear
11:30 PM 80.6 °F 85.4 °F 73.4 °F 79% 29.83 in - SSW 6.9 mph - N/A   Clear